Theta_e
311 313 319 318 312 309 313 314 315 316 320 345 348 353 355 353 359 363 357 360 358 355 342 343 339 335 326 323 324 326 329 334 333 333 331 331 333 333 332 333 335 332 326 326 329 332 331 331 337
311 318 320 310 310 310 310 312 316 318 319 327 351 354 356 358 352 360 359 356 355 346 343 342 341 338 331 323 324 325 329 330 327 327 329 330 330 331 336 336 334 325 324 326 328 330 328 335 340
318 319 314 311 308 311 312 314 315 317 316 317 343 344 348 349 347 356 359 359 353 347 343 342 341 339 336 326 324 324 327 327 325 324 325 327 330 336 337 335 325 324 325 327 329 327 330 339 341
319 312 309 315 317 315 316 316 315 315 316 316 335 334 333 329 340 359 359 359 355 349 343 341 341 340 338 332 324 324 325 326 325 324 326 329 333 337 337 329 324 324 325 328 329 326 336 340 342
314 307 311 314 316 315 314 313 311 314 316 317 327 328 325 325 358 359 356 355 353 351 345 341 340 340 339 337 328 324 325 327 326 326 328 331 332 335 331 325 323 323 325 330 328 327 338 341 346
308 307 311 314 314 313 312 312 313 314 314 316 321 320 319 319 357 359 357 354 353 352 349 342 339 339 340 338 336 327 324 326 327 327 330 333 333 334 329 325 323 324 327 328 325 331 339 342 346
310 309 311 313 314 314 315 311 314 313 313 316 318 319 318 315 325 358 358 355 354 354 351 345 340 338 339 339 339 334 325 326 327 327 329 331 331 330 330 326 323 324 327 328 325 334 338 342 344
308 307 312 312 313 314 313 312 313 314 316 313 316 315 315 314 327 353 357 357 356 354 352 350 345 341 340 340 339 339 330 326 327 328 329 330 329 330 330 326 323 323 327 326 325 333 338 341 342
306 307 308 312 315 315 313 314 314 314 315 315 315 315 316 317 344 355 356 357 357 356 353 350 348 344 343 342 341 340 336 327 328 328 329 331 330 331 329 326 323 324 328 326 325 333 337 340 343
308 306 309 309 314 315 314 315 315 316 314 316 315 316 317 318 318 336 350 354 355 355 353 351 349 345 343 343 344 342 340 331 329 330 330 332 332 332 328 324 324 324 328 326 326 334 337 340 344
311 311 311 314 315 314 315 315 314 316 315 314 314 315 315 316 316 313 319 349 353 355 353 351 349 348 345 342 345 346 343 337 331 330 332 333 334 334 329 327 326 325 328 328 325 335 337 340 344
316 314 315 315 314 313 314 314 315 314 314 313 313 313 314 315 314 314 312 322 335 350 351 352 350 348 350 347 351 350 346 343 336 332 332 333 334 334 331 328 328 325 327 328 325 333 337 339 343
315 316 315 314 313 314 313 313 314 312 312 312 311 312 313 313 314 316 316 324 335 334 345 351 351 347 344 347 347 351 347 344 340 336 332 333 335 334 332 329 329 326 329 332 325 329 336 341 345
315 315 315 315 315 314 315 315 315 315 315 313 313 312 313 313 313 316 317 319 340 341 345 350 352 350 344 343 344 340 341 342 343 340 336 334 334 335 334 331 331 332 334 335 332 326 332 342 346
315 316 315 316 316 316 314 317 317 315 313 313 314 313 312 313 314 316 318 320 330 340 346 351 350 348 343 342 345 343 341 342 342 340 339 337 336 336 335 332 337 338 337 338 339 332 330 339 344
316 314 314 314 315 316 316 316 315 314 314 315 315 313 313 314 316 317 318 320 326 339 345 346 347 347 345 345 345 346 345 344 342 342 339 340 339 338 336 334 335 340 339 339 340 333 335 342 342
312 315 315 314 314 314 316 315 315 315 314 314 314 313 313 313 313 316 318 319 320 326 334 343 347 347 347 345 343 342 344 345 344 343 342 337 339 339 338 337 334 341 342 340 341 338 339 343 341
314 314 313 313 314 314 315 314 313 314 314 313 313 313 313 313 313 315 317 318 317 322 328 330 341 347 347 346 343 343 342 345 344 343 341 341 341 340 341 339 335 339 343 341 339 340 345 342 341
314 313 314 313 313 316 315 314 315 315 313 313 313 312 312 312 314 315 316 317 317 316 327 333 339 340 347 347 344 343 345 347 344 342 342 340 341 340 340 341 337 335 342 341 339 345 346 345 342
315 316 314 314 315 317 315 316 316 315 315 314 314 314 315 313 313 314 316 317 317 319 318 325 333 340 346 348 345 345 344 345 342 338 344 345 343 341 339 341 341 336 342 340 340 345 345 345 344
316 316 315 315 316 315 316 314 315 316 315 316 316 316 313 313 312 314 316 319 321 321 321 320 320 321 331 341 344 344 344 344 343 343 341 346 345 345 342 339 341 341 341 341 340 344 345 345 343
317 315 316 317 316 317 315 316 314 317 320 318 316 313 310 312 314 315 315 314 317 319 321 322 322 323 323 324 323 330 337 339 334 334 334 337 344 344 344 343 339 342 341 341 343 344 345 344 343
316 315 316 317 316 315 315 316 314 317 321 319 316 313 313 312 312 312 314 316 318 319 320 321 321 323 323 324 324 327 331 335 335 334 340 340 338 343 344 344 341 341 341 341 340 343 344 344 343
316 317 313 311 311 316 315 317 315 318 320 319 317 316 317 316 315 315 316 318 319 319 320 320 320 320 320 320 323 326 328 330 338 339 340 335 337 342 343 343 342 342 341 341 342 343 343 344 344
313 313 316 316 314 318 315 317 314 316 319 318 317 318 318 316 315 315 316 315 318 319 319 319 319 319 319 320 320 320 323 326 333 336 338 336 334 339 342 342 342 341 342 340 339 340 342 343 343
317 314 315 320 320 318 316 319 317 315 318 317 316 317 316 317 315 316 316 316 317 318 318 318 318 318 319 319 320 322 322 324 328 334 338 337 331 335 336 341 341 342 340 335 334 342 342 342 342
317 317 312 315 315 316 316 316 315 318 320 317 316 316 316 315 315 315 315 316 316 318 318 318 319 319 318 318 319 321 323 323 324 328 334 337 332 335 336 340 339 340 341 341 341 340 343 341 343
316 314 315 312 321 322 318 318 318 319 319 316 317 317 315 313 313 313 313 314 316 317 318 318 319 317 317 317 317 318 321 325 328 330 333 338 338 334 336 339 340 340 341 341 341 341 342 342 344
316 316 314 313 314 320 322 321 314 314 314 314 314 313 311 311 311 312 314 315 316 317 317 316 315 315 316 317 317 317 322 323 329 328 329 335 337 336 336 338 340 340 341 341 340 341 342 342 343
315 316 314 315 318 316 317 320 317 316 315 313 312 311 310 313 311 309 311 314 317 316 316 316 316 316 316 317 318 319 321 326 327 326 326 328 336 337 335 338 340 340 340 339 340 340 341 341 339
Wind_Speed
9 5 4 3 4 5 4 6 3 6 9 6 2 5 8 7 6 4 3 20 17 35 31 28 25 23 22 22 23 22 23 24 25 25 25 23 20 18 16 15 14 13 12 11 9 8 8 10 9
5 3 3 3 5 4 5 5 4 2 1 11 7 5 7 3 3 1 6 15 25 37 32 30 27 25 22 22 23 23 23 23 24 25 24 22 19 17 15 13 12 12 11 11 9 8 8 9 10
3 3 4 4 4 4 4 4 9 15 4 5 3 4 4 1 1 3 1 24 27 30 29 29 29 27 24 22 23 23 23 23 24 24 23 21 18 15 14 12 10 10 9 9 8 9 8 8 8
3 5 4 4 3 4 3 9 9 8 6 5 3 6 3 8 1 6 17 22 29 28 27 26 27 27 24 22 22 23 23 23 23 23 22 20 18 15 13 12 9 9 8 7 7 8 8 7 7
5 3 4 3 2 4 5 7 8 6 5 6 2 3 4 6 11 19 22 24 31 29 27 25 24 25 24 23 22 22 23 23 22 22 21 19 16 15 13 12 10 9 7 6 5 7 7 7 7
4 3 5 1 4 5 6 5 7 6 6 7 8 5 4 6 8 14 19 25 29 30 28 27 25 24 25 24 22 22 23 23 22 21 20 18 15 14 13 11 10 8 7 6 5 6 6 8 7
6 4 4 2 3 4 5 8 5 5 8 7 1 3 2 4 1 12 15 19 23 25 26 27 26 25 25 25 24 23 23 23 23 21 20 18 15 14 13 12 10 9 8 6 6 6 6 7 9
5 4 2 1 1 3 5 8 2 6 4 6 3 4 4 4 7 13 18 16 18 22 24 24 25 25 25 26 25 24 23 24 24 23 20 18 16 15 14 13 11 10 8 6 5 5 6 6 7
4 4 0 3 1 5 4 6 6 3 3 4 6 3 1 8 12 15 14 12 15 19 23 24 24 24 24 25 25 24 23 23 23 22 21 19 18 17 16 14 12 10 9 7 6 5 5 5 7
4 4 7 5 2 3 3 3 3 5 9 1 4 2 7 7 9 9 10 12 15 17 21 24 25 27 25 24 25 25 24 25 25 24 22 21 19 17 16 15 13 12 11 9 8 7 5 5 9
2 4 4 3 4 2 2 2 3 1 3 7 9 4 5 3 5 9 7 14 21 21 21 25 26 25 25 26 26 26 27 25 25 24 24 22 20 18 18 15 15 14 12 11 9 9 7 6 10
1 2 3 5 5 5 5 4 1 4 9 7 9 8 3 4 6 8 13 14 14 20 23 25 26 23 22 24 21 21 27 28 28 27 26 24 22 21 20 18 16 15 13 12 11 11 8 6 8
0 3 5 6 7 6 3 6 3 8 11 9 8 9 9 6 8 9 6 11 13 18 21 26 25 24 24 25 23 22 27 30 29 28 27 25 24 23 22 19 18 16 15 15 13 13 11 7 9
3 4 7 6 8 4 2 3 1 12 9 8 7 12 10 8 10 9 8 9 13 14 16 22 25 24 25 27 26 26 27 30 29 28 28 28 26 25 23 20 20 17 16 16 15 14 12 10 11
4 7 7 3 3 5 2 6 4 11 8 8 11 10 8 10 13 14 9 9 18 15 17 20 23 23 25 26 25 26 25 25 27 27 28 27 27 27 25 23 21 20 19 18 18 15 14 11 15
5 4 5 5 6 3 2 6 7 8 6 10 10 8 8 8 10 17 15 13 18 19 21 22 23 23 25 25 24 23 23 23 24 26 28 29 29 29 28 27 25 21 21 19 16 15 14 16 20
6 1 3 8 4 3 2 7 7 10 8 9 9 8 8 8 10 15 18 21 21 23 24 25 25 25 26 26 25 23 25 25 25 23 24 27 29 32 31 30 28 23 24 22 18 20 16 24 24
5 2 3 5 5 4 5 9 10 11 8 11 9 9 9 9 12 22 20 23 19 21 25 24 26 27 25 26 26 24 23 26 27 27 27 27 28 28 33 32 31 28 25 26 21 20 22 27 23
4 4 5 5 5 3 8 7 17 14 7 9 10 9 9 10 12 20 25 23 18 16 21 27 26 26 25 27 29 26 26 27 27 30 30 31 28 29 28 33 31 32 27 26 21 21 27 22 22
6 3 5 5 6 2 8 11 17 8 8 7 9 9 10 7 6 9 13 18 22 20 22 22 24 26 26 26 28 24 22 26 28 26 29 31 30 33 32 31 33 34 28 25 23 27 23 18 26
3 4 4 6 3 4 5 8 8 7 3 6 5 7 9 9 8 6 7 11 10 11 15 18 20 22 21 23 24 19 19 16 16 22 24 28 28 26 34 37 34 34 33 28 27 32 32 21 27
3 6 3 5 4 3 3 5 6 6 9 5 8 8 9 8 6 3 2 3 3 2 4 6 7 12 16 17 20 25 28 23 30 32 30 27 28 29 27 32 35 32 36 33 27 31 36 31 25
8 4 3 3 5 2 1 2 7 4 6 6 8 8 8 8 8 8 7 12 11 9 9 10 9 5 1 4 12 21 25 32 34 30 26 27 26 27 30 28 31 30 28 33 30 31 36 34 27
3 2 5 4 2 2 6 4 5 3 4 5 4 4 5 7 7 6 7 11 10 8 8 7 5 5 8 7 8 10 17 26 27 29 27 25 26 27 30 33 32 38 29 19 28 31 35 34 30
7 6 4 4 4 5 4 2 8 5 7 5 6 3 1 4 5 4 5 4 5 5 5 4 5 6 8 12 13 12 14 17 24 30 30 27 25 22 29 34 35 32 35 32 30 29 35 35 30
0 6 5 5 4 5 4 6 6 8 7 5 7 4 4 4 4 5 7 8 7 6 3 3 7 9 12 15 17 19 18 17 19 26 32 34 30 30 32 33 36 39 37 39 41 34 38 36 32
3 3 5 3 3 1 6 6 9 6 7 8 8 8 8 8 7 9 8 12 13 12 4 2 6 9 12 15 18 22 23 22 22 23 27 34 34 30 33 35 37 38 41 40 36 36 39 35 33
4 5 3 2 4 5 4 4 6 2 9 7 7 7 8 8 6 8 9 15 16 11 5 4 5 7 12 16 20 22 24 23 22 22 26 30 33 34 32 33 35 39 39 40 36 32 39 36 32
2 1 2 3 4 4 4 5 7 9 8 8 8 9 10 10 12 11 11 17 14 10 6 6 8 9 11 15 20 23 25 22 22 23 27 31 32 36 35 33 35 38 37 40 39 37 37 34 33
5 6 6 4 5 4 3 11 7 11 4 6 8 9 9 17 12 9 8 11 12 10 8 9 11 14 17 18 17 19 23 23 22 24 28 32 33 36 37 35 35 37 38 36 36 34 31 34 32
Wind_Direction
332 343 328 39 55 63 296 273 273 323 353 317 357 122 145 120 159 215 341 166 186 172 170 171 169 165 161 162 160 159 159 156 153 151 151 151 151 148 146 144 143 142 138 132 121 106 92 86 76
358 16 50 75 80 53 279 265 258 157 7 296 66 54 50 59 60 122 116 164 173 166 170 170 173 170 166 166 163 162 160 160 155 155 155 154 155 152 149 149 149 147 143 136 126 109 92 84 73
15 13 81 91 108 166 233 290 291 297 210 246 135 95 96 88 90 166 184 177 175 170 173 174 174 174 171 168 166 165 164 164 161 161 159 157 157 158 155 155 155 152 147 138 123 108 93 81 76
19 17 35 86 188 243 226 284 289 304 338 16 91 58 43 346 316 169 154 165 174 175 178 179 178 178 176 172 170 171 169 169 169 167 165 163 163 165 162 159 161 158 154 140 121 102 93 74 76
41 51 63 73 284 274 267 287 321 354 352 343 353 76 52 19 120 148 163 169 175 179 181 182 183 182 180 178 176 177 175 175 177 173 172 171 171 170 169 165 167 167 161 144 116 100 93 80 93
39 94 56 84 299 274 294 335 344 31 354 359 46 53 53 -0 138 164 170 178 184 181 183 184 185 186 187 186 183 182 182 181 182 180 178 179 177 176 174 175 172 177 172 154 132 116 102 91 108
107 78 167 184 281 327 322 331 29 336 25 3 42 62 290 73 87 186 180 183 188 186 186 187 188 191 193 193 190 188 188 187 187 186 186 184 185 186 184 183 181 185 182 173 148 135 116 104 126
106 90 60 278 332 300 320 346 301 37 4 295 22 29 339 25 134 167 184 184 186 190 191 191 191 192 196 197 197 193 192 192 192 192 192 191 192 195 196 192 190 191 190 190 169 154 133 125 132
117 62 53 249 264 276 298 22 335 289 57 4 354 42 302 70 128 123 140 157 179 188 194 194 195 196 200 201 200 200 198 196 197 198 198 199 200 201 202 201 201 199 198 200 197 181 160 151 146
92 112 215 214 215 254 305 344 305 23 348 323 341 1 350 346 113 127 150 164 186 196 200 202 201 199 199 202 203 202 202 201 200 201 201 207 209 210 211 210 209 208 205 206 207 204 193 180 171
76 200 194 268 263 179 215 292 318 14 294 263 278 228 288 204 284 151 177 185 195 206 205 208 208 207 201 200 201 205 205 206 205 206 207 209 214 216 218 218 219 218 217 217 217 219 214 200 181
294 292 63 308 334 321 314 300 249 229 239 251 263 278 311 226 250 229 178 182 200 208 217 218 212 212 206 200 197 205 208 210 208 209 211 213 215 220 224 225 227 229 226 228 230 228 236 239 195
65 314 301 269 288 297 284 253 236 256 256 279 292 293 273 259 252 235 201 184 191 200 217 218 216 215 210 208 205 207 214 216 215 213 214 217 220 224 229 229 232 235 238 237 234 237 246 251 232
283 268 305 318 302 292 275 293 98 288 278 296 288 272 261 252 230 255 228 180 190 192 202 210 212 216 211 216 221 222 221 221 222 223 223 220 222 226 232 235 239 238 238 242 245 247 253 253 249
303 342 354 353 329 285 192 343 267 272 337 308 297 277 256 222 203 212 223 173 187 191 194 204 209 211 210 219 226 227 230 229 229 230 234 233 231 229 232 235 241 244 246 249 253 253 256 265 210
15 41 6 290 325 329 45 263 289 322 355 313 306 294 285 234 209 205 206 197 177 179 190 199 207 211 214 223 228 228 233 235 238 235 240 242 240 240 238 235 237 243 252 252 253 249 256 226 196
359 226 237 314 303 330 14 278 271 298 303 281 283 279 269 261 282 244 218 200 184 181 186 201 205 212 216 223 227 233 238 238 241 242 243 248 250 246 244 243 239 239 250 253 253 250 247 195 192
238 264 266 240 287 325 288 261 270 268 263 264 273 272 262 260 251 254 233 217 213 201 196 199 204 210 217 223 224 231 242 240 240 243 246 249 250 253 249 246 243 240 252 250 258 241 203 190 189
198 203 229 247 253 224 269 288 289 287 273 279 277 270 266 249 242 255 248 244 236 219 207 203 207 214 213 214 222 232 234 238 236 238 246 248 244 250 252 249 242 238 247 247 241 211 194 190 177
242 267 282 280 271 304 293 291 284 286 263 246 261 279 276 266 241 254 252 249 242 238 214 211 216 220 217 215 218 224 232 237 242 253 251 247 245 245 251 252 246 235 238 237 225 208 197 191 180
267 208 232 242 316 294 336 313 334 304 282 285 274 283 286 261 238 233 224 208 200 201 214 228 235 235 234 232 232 237 237 243 239 242 252 245 241 245 243 247 251 242 234 234 223 218 208 185 192
250 224 245 286 9 268 91 282 296 311 310 343 327 332 348 4 341 65 79 123 131 122 187 205 234 248 253 258 252 250 250 242 250 252 253 253 247 245 245 243 245 251 240 230 227 220 213 209 190
240 183 238 260 262 18 285 117 266 335 310 333 340 352 17 26 43 43 54 83 79 77 76 84 82 76 14 273 274 261 260 261 262 263 255 255 260 252 244 241 235 241 237 233 231 227 219 217 212
69 50 34 57 85 5 227 132 281 274 253 292 337 20 28 44 51 77 94 102 98 93 79 79 58 25 9 344 351 319 272 265 263 268 259 253 261 263 250 241 237 234 229 244 236 227 227 222 223
65 57 342 339 358 231 257 303 241 237 233 218 173 193 92 65 73 71 78 75 80 72 59 43 9 359 4 351 332 315 303 280 267 263 253 251 255 251 252 240 230 229 220 237 253 248 233 236 232
257 148 158 257 217 241 339 255 251 214 247 252 249 231 222 233 217 197 190 190 196 205 215 304 348 344 342 340 337 335 313 294 283 267 257 249 248 255 261 252 240 234 218 224 239 244 235 237 237
174 209 186 210 228 95 217 281 312 227 276 281 242 211 221 228 235 231 221 218 212 220 216 293 335 333 335 335 330 331 327 306 289 282 269 256 251 251 255 251 247 238 222 220 226 229 233 231 231
151 173 4 14 296 259 265 244 227 217 234 261 250 250 269 265 258 253 251 244 230 222 239 263 280 310 319 322 325 319 318 308 291 285 279 261 254 247 246 241 236 235 224 219 218 226 232 225 219
272 187 161 167 161 229 278 244 214 232 234 243 265 275 264 268 270 255 238 235 243 216 239 276 299 308 319 322 327 320 315 302 299 293 286 270 256 248 248 240 228 225 214 211 214 215 223 219 211
185 207 159 140 260 225 214 261 277 254 240 240 263 296 280 292 292 256 227 205 211 227 251 280 301 311 313 314 312 315 313 308 302 305 299 284 263 251 250 240 224 224 211 198 202 203 211 214 199